Wisconsin Rapids, WI

10:39 AM CST on December 15, 2017 (GMT -0600)
Alexander Field South Wood County

Weather History for KISW - August, 2013

Change the Weather History Date:

Saturday, August 24, 2013

  Actual Average Record
Temperature  
Mean Temperature 72 °F -  
Max Temperature 87 °F 77 °F 107 °F (1948)
Min Temperature 57 °F 53 °F 37 °F (1987)
Cooling Degree Days 7    
Growing Degree Days 22 (Base 50)    
Moisture  
Dew Point 59 °F    
Average Humidity 61    
Maximum Humidity 84    
Minimum Humidity 35    
Precipitation  
Precipitation 0.00 in - - ()
Sea Level Pressure  
Sea Level Pressure 30.18 in    
Wind  
Wind Speed 5 mph (South)    
Max Wind Speed 12 mph    
Max Gust Speed 18 mph    
Visibility 10 miles    
Events Rain    
Averages and records for this station are not official NWS values.
T = Trace of Precipitation, MM = Missing Value Source: NWS Daily Summary

Daily Weather History Graph

Daily Weather History Graph

Search for Another Location

Airport or City:

Trip Planner

Search our weather history database for the weather conditions in past years. The results will help you decide how hot, cold, wet, or windy it might be!

Date:

Astronomy

Aug. 24, 2013 Rise Set
Actual Time 6:13 AM CDT 7:49 PM CDT
Civil Twilight 5:42 AM CDT 8:19 PM CDT
Nautical Twilight 5:05 AM CDT 8:56 PM CDT
Astronomical Twilight 4:25 AM CDT 9:36 PM CDT
Moon 9:30 PM CDT (8/24) 10:24 AM CDT (8/24)
Length of Visible Light 14h 37m
Length of Day
13h 36m
Waning Gibbous, 84% of the Moon is Illuminated
Aug 24
Waning Gibbous
Aug 28
Last Quarter
Sep 5
New
Sep 12
First Quarter
Sep 19
Full

Hourly Weather History & Observations

Time (CDT) Temp. Heat Index Dew Point Humidity Pressure Visibility Wind Dir Wind Speed Gust Speed Precip Events Conditions
12:54 AM 64.0 °F - 57.9 °F 80% 30.18 in 10.0 mi Calm Calm - N/A   Clear
1:54 AM 63.0 °F - 57.0 °F 81% 30.18 in 10.0 mi South 4.6 mph - N/A   Clear
2:54 AM 62.1 °F - 55.9 °F 80% 30.19 in 10.0 mi South 3.5 mph - N/A   Clear
3:54 AM 62.1 °F - 54.0 °F 75% 30.20 in 10.0 mi South 4.6 mph - 0.00 in Rain Light Rain
4:54 AM 60.1 °F - 53.1 °F 78% 30.22 in 10.0 mi South 4.6 mph - N/A   Clear
5:54 AM 57.9 °F - 53.1 °F 84% 30.22 in 10.0 mi South 4.6 mph - N/A   Clear
6:54 AM 59.0 °F - 52.0 °F 78% 30.23 in 10.0 mi SSE 4.6 mph - N/A   Clear
7:54 AM 64.0 °F - 52.0 °F 65% 30.25 in 10.0 mi South 3.5 mph - N/A   Clear
8:54 AM 71.1 °F - 50.0 °F 47% 30.24 in 10.0 mi South 3.5 mph - N/A   Partly Cloudy
9:54 AM 73.9 °F - 46.9 °F 38% 30.24 in 10.0 mi South 10.4 mph - N/A   Overcast
10:54 AM 79.0 °F - 51.1 °F 38% 30.23 in 10.0 mi SSW 9.2 mph - N/A   Overcast
11:54 AM 80.1 °F - 50.0 °F 35% 30.22 in 10.0 mi South 9.2 mph - N/A   Overcast
12:54 PM 79.0 °F - 55.9 °F 45% 30.22 in 10.0 mi SW 5.8 mph - N/A   Overcast
1:54 PM 82.9 °F 83.3 °F 61.0 °F 47% 30.19 in 10.0 mi SSW 8.1 mph 16.1 mph N/A   Mostly Cloudy
2:54 PM 84.0 °F 84.5 °F 62.1 °F 47% 30.16 in 10.0 mi SSE 8.1 mph - N/A   Mostly Cloudy
3:54 PM 86.0 °F 87.3 °F 64.0 °F 48% 30.14 in 10.0 mi South 8.1 mph - N/A   Partly Cloudy
4:54 PM 87.1 °F 89.2 °F 66.0 °F 49% 30.13 in 10.0 mi SW 11.5 mph - N/A   Scattered Clouds
5:54 PM 84.9 °F 86.6 °F 64.9 °F 51% 30.13 in 10.0 mi South 10.4 mph - N/A   Partly Cloudy
6:54 PM 82.9 °F 85.0 °F 66.0 °F 56% 30.12 in 10.0 mi South 9.2 mph 18.4 mph N/A   Clear
7:54 PM 79.0 °F - 66.0 °F 64% 30.12 in 10.0 mi South 11.5 mph - N/A   Clear
8:23 PM 78.8 °F - 66.2 °F 65% 30.14 in 10.0 mi South 5.8 mph - N/A   Partly Cloudy
8:54 PM 77.0 °F - 66.0 °F 69% 30.13 in 10.0 mi South 6.9 mph - N/A   Clear
9:54 PM 75.9 °F - 66.0 °F 71% 30.13 in 10.0 mi South 6.9 mph - N/A   Clear
10:54 PM 75.0 °F - 64.9 °F 71% 30.12 in 10.0 mi South 10.4 mph - N/A   Clear
11:54 PM 75.0 °F - 64.9 °F 71% 30.11 in 10.0 mi South 10.4 mph 17.3 mph N/A   Mostly Cloudy